Weather History for Lafayette, IN

Change the Weather History Date:

Wednesday, July 24, 2013

  Actual Average Record
Temperature  
Mean Temperature 64 °F 74 °F  
Max Temperature 74 °F 85 °F 94 °F (1965)
Min Temperature 54 °F 64 °F 53 °F (2008)
Degree Days  
Heating Degree Days 1 0  
Month to date heating degree days 1 0  
Since 1 June heating degree days 19 22  
Since 1 July heating degree days 1 0  
Cooling Degree Days 0 9  
Month to date cooling degree days 216 236  
Year to date cooling degree days 495 530  
Since 1 June cooling degree days 394 453  
Growing Degree Days 14 (Base 50)    
Moisture  
Dew Point 52 °F    
Average Humidity 68    
Maximum Humidity 89    
Minimum Humidity 46    
Precipitation  
Precipitation 0.00 in 0.12 in 1.36 in (1993)
Month to date precipitation 2.43 3.22  
Year to date precipitation 25.32 21.34  
Sea Level Pressure  
Sea Level Pressure 29.99 in    
Wind  
Wind Speed 8 mph (NNE)    
Max Wind Speed 16 mph    
Max Gust Speed 23 mph    
Visibility 10 miles    
Events      
T = Trace of Precipitation, MM = Missing Value Source: NWS Daily Summary

Daily Weather History Graph

Daily Weather History Graph

Search for Another Location

Airport:

Trip Planner

Search our weather history database for the weather conditions in past years. The results will help you decide how hot, cold, wet, or windy it might be!

Date:

Astronomy

Jul. 24, 2013 Rise Set
Actual Time 6:38 AM EDT 9:09 PM EDT
Civil Twilight 6:06 AM EDT 9:41 PM EDT
Nautical Twilight 5:27 AM EDT 10:19 PM EDT
Astronomical Twilight 4:44 AM EDT 11:03 PM EDT
Moon 10:14 PM EDT (7/24) 8:58 AM EDT (7/24)
Length of Visible Light 15h 34m
Length of Day
14h 31m
Waning Gibbous, 95% of the Moon is Illuminated
Jul 24
Waning Gibbous
Jul 29
Last Quarter
Aug 6
New
Aug 14
First Quarter
Aug 20
Full

Hourly Weather History & Observations

Time (EDT) Temp. Dew Point Humidity Pressure Visibility Wind Dir Wind Speed Gust Speed Precip Events Conditions
12:54 AM 61.0 °F 52.0 °F 72% 29.93 in 10.0 mi North 9.2 mph - N/A   Clear
1:54 AM 59.0 °F 52.0 °F 78% 29.93 in 10.0 mi North 5.8 mph - N/A   Clear
2:54 AM 59.0 °F 52.0 °F 78% 29.92 in 10.0 mi North 9.2 mph - N/A   Clear
3:54 AM 57.0 °F 51.1 °F 81% 29.94 in 10.0 mi NNE 6.9 mph - N/A   Clear
4:54 AM 55.9 °F 51.1 °F 84% 29.95 in 10.0 mi NNE 8.1 mph - N/A   Clear
5:54 AM 55.0 °F 50.0 °F 83% 29.96 in 10.0 mi NNE 5.8 mph - N/A   Clear
6:54 AM 54.0 °F 50.0 °F 86% 29.98 in 10.0 mi NNE 6.9 mph - N/A   Clear
7:54 AM 55.9 °F 51.1 °F 84% 29.99 in 10.0 mi NNE 6.9 mph - N/A   Clear
8:54 AM 59.0 °F 51.1 °F 75% 30.00 in 10.0 mi NNE 6.9 mph - N/A   Clear
9:54 AM 62.1 °F 50.0 °F 65% 30.00 in 10.0 mi NE 10.4 mph - N/A   Clear
10:54 AM 64.0 °F 52.0 °F 65% 30.02 in 10.0 mi ENE 12.7 mph - N/A   Clear
11:54 AM 66.9 °F 53.1 °F 61% 30.02 in 10.0 mi NE 9.2 mph - N/A   Clear
12:54 PM 69.1 °F 54.0 °F 58% 30.01 in 10.0 mi NE 6.9 mph - N/A   Clear
1:54 PM 71.1 °F 53.1 °F 53% 30.01 in 10.0 mi NE 13.8 mph 18.4 mph N/A   Clear
2:54 PM 72.0 °F 54.0 °F 53% 30.01 in 10.0 mi NE 10.4 mph - N/A   Clear
3:54 PM 73.0 °F 52.0 °F 48% 30.01 in 10.0 mi NNE 11.5 mph - N/A   Clear
4:54 PM 73.0 °F 52.0 °F 48% 30.00 in 10.0 mi ENE 8.1 mph 16.1 mph N/A   Clear
5:54 PM 73.0 °F 51.1 °F 46% 29.99 in 10.0 mi Variable 5.8 mph - N/A   Clear
6:54 PM 72.0 °F 52.0 °F 49% 29.99 in 10.0 mi ENE 5.8 mph - N/A   Clear
7:54 PM 72.0 °F 52.0 °F 49% 30.01 in 10.0 mi NNE 3.5 mph - N/A   Clear
8:54 PM 68.0 °F 52.0 °F 56% 30.01 in 10.0 mi NNE 3.5 mph - N/A   Clear
9:54 PM 62.1 °F 54.0 °F 75% 30.02 in 10.0 mi North 3.5 mph - N/A   Clear
10:54 PM 63.0 °F 53.1 °F 70% 30.03 in 10.0 mi North 9.2 mph - N/A   Clear
11:54 PM 60.1 °F 53.1 °F 78% 30.04 in 10.0 mi North 6.9 mph - N/A   Clear